Fallon NAS, NV

12:07 AM PDT on March 24, 2017 (GMT -0700)
Fallon Naval Air Station

Weather History for KNFL - October, 2013

Change the Weather History Date:

Tuesday, October 22, 2013

  Actual Average Record
Temperature  
Mean Temperature 54 °F -  
Max Temperature 73 °F 68 °F 82 °F (2003)
Min Temperature 35 °F 32 °F 18 °F (1935)
Degree Days  
Heating Degree Days 11    
Growing Degree Days 4 (Base 50)    
Moisture  
Dew Point 20 °F    
Average Humidity 32    
Maximum Humidity 48    
Minimum Humidity 15    
Precipitation  
Precipitation 0.00 in - - ()
Sea Level Pressure  
Sea Level Pressure 30.05 in    
Wind  
Wind Speed 4 mph (SSE)    
Max Wind Speed 7 mph    
Max Gust Speed -    
Visibility 10 miles    
Events      
Averages and records for this station are not official NWS values.
T = Trace of Precipitation, MM = Missing Value Source: NWS Daily Summary

Daily Weather History Graph

Daily Weather History Graph

Search for Another Location

Airport or City:

Trip Planner

Search our weather history database for the weather conditions in past years. The results will help you decide how hot, cold, wet, or windy it might be!

Date:

Astronomy

Oct. 22, 2013 Rise Set
Actual Time 7:12 AM PDT 6:05 PM PDT
Civil Twilight 6:44 AM PDT 6:32 PM PDT
Nautical Twilight 6:13 AM PDT 7:04 PM PDT
Astronomical Twilight 5:42 AM PDT 7:35 PM PDT
Moon 8:50 PM PDT (10/22) 10:43 AM PDT (10/22)
Length of Visible Light 11h 47m
Length of Day
10h 53m
Waning Gibbous, 86% of the Moon is Illuminated
Oct 22
Waning Gibbous
Oct 26
Last Quarter
Nov 3
New
Nov 9
First Quarter
Nov 17
Full

Hourly Weather History & Observations

Time (PDT) Temp. Windchill Dew Point Humidity Pressure Visibility Wind Dir Wind Speed Gust Speed Precip Events Conditions
12:56 AM 41.0 °F 36.4 °F 18.0 °F 40% 30.06 in 10.0 mi South 6.9 mph - N/A   Clear
1:56 AM 39.0 °F 36.8 °F 18.0 °F 43% 30.07 in 10.0 mi South 3.5 mph - N/A   Clear
2:56 AM 39.0 °F 35.7 °F 18.0 °F 43% 30.07 in 10.0 mi SSW 4.6 mph - N/A   Clear
3:56 AM 37.9 °F 34.4 °F 17.1 °F 43% 30.07 in 10.0 mi South 4.6 mph - N/A   Clear
4:56 AM 37.9 °F 35.5 °F 16.0 °F 41% 30.07 in 10.0 mi South 3.5 mph - N/A   Clear
5:56 AM 37.0 °F 34.5 °F 17.1 °F 44% 30.08 in 10.0 mi SSW 3.5 mph - N/A   Clear
6:17 AM 35.6 °F - 17.6 °F 48% 30.19 in 10.0 mi Calm Calm - N/A   Partly Cloudy
6:56 AM 35.1 °F - 17.1 °F 48% 30.09 in 10.0 mi Calm Calm - N/A   Partly Cloudy
7:56 AM 37.9 °F - 16.0 °F 41% 30.10 in 10.0 mi Calm Calm - N/A   Partly Cloudy
8:56 AM 46.9 °F - 18.0 °F 32% 30.11 in 10.0 mi Calm Calm - N/A   Partly Cloudy
9:56 AM 53.1 °F - 21.9 °F 30% 30.11 in 10.0 mi Calm Calm - N/A   Partly Cloudy
10:56 AM 60.1 °F - 21.9 °F 23% 30.09 in 10.0 mi Calm Calm - N/A   Partly Cloudy
11:56 AM 63.0 °F - 23.0 °F 22% 30.08 in 10.0 mi Variable 3.5 mph - N/A   Partly Cloudy
12:56 PM 68.0 °F - 23.0 °F 18% 30.06 in 10.0 mi Calm Calm - N/A   Partly Cloudy
1:56 PM 71.1 °F - 21.9 °F 16% 30.03 in 10.0 mi ESE 3.5 mph - N/A   Partly Cloudy
2:56 PM 73.0 °F - 21.9 °F 15% 30.02 in 10.0 mi Calm Calm - N/A   Partly Cloudy
3:56 PM 73.0 °F - 21.9 °F 15% 30.01 in 10.0 mi North 4.6 mph - N/A   Clear
4:56 PM 73.0 °F - 23.0 °F 15% 29.99 in 10.0 mi North 5.8 mph - N/A   Clear
5:56 PM 68.0 °F - 23.0 °F 18% 29.98 in 10.0 mi NE 6.9 mph - N/A   Clear
6:56 PM 57.9 °F - 25.0 °F 28% 29.98 in 10.0 mi NE 5.8 mph - N/A   Clear
7:56 PM 55.9 °F - 23.0 °F 28% 29.99 in 10.0 mi ENE 6.9 mph - N/A   Clear
8:56 PM 48.9 °F - 21.9 °F 35% 29.99 in 10.0 mi West 6.9 mph - N/A   Clear
9:56 PM 46.0 °F - 21.0 °F 37% 30.00 in 10.0 mi Calm Calm - N/A   Clear
10:56 PM 43.0 °F 38.8 °F 19.0 °F 38% 30.01 in 10.0 mi South 6.9 mph - N/A   Clear
11:56 PM 42.1 °F - 19.0 °F 40% 30.00 in 10.0 mi Calm Calm - N/A   Clear